When you browse on this site, cookies collect data to enhance your experience and personalize the content and advertising you see.
Visit our Privacy Policy to learn more. By continuing to use the site, you agree to this use of cookies and data.
  • In Sweden
  • List of Countries
  • For 7 days
  • Water Temperature
  • Satellite Maps
  • Weather Map
  • Weather Widgets
  • user-avatar
    Login

    Hourly Weather Consett

    Today, 26 June, Wednesday

    Time Temperature Precipitation Wind Pressure Humidity
    00:00 +10°C° 0 mm 3 mps 750 mmHg 94%
    01:00 +10°C° 0 mm 3 mps 750 mmHg 93%
    02:00 +10°C° 0 mm 3 mps 750 mmHg 93%
    03:00 +10°C° 0 mm 3 mps 750 mmHg 93%
    04:00 +10°C° 0 mm 3 mps 751 mmHg 92%
    05:00 +10°C° 0 mm 3 mps 751 mmHg 91%
    06:00 +10°C° 0 mm 3 mps 751 mmHg 90%
    07:00 +10°C° 0 mm 3 mps 752 mmHg 87%
    08:00 +11°C° 0 mm 3 mps 752 mmHg 84%
    09:00 +12°C° 0 mm 3 mps 753 mmHg 81%
    10:00 +13°C° 0 mm 3 mps 753 mmHg 76%
    11:00 +14°C° 0 mm 3 mps 753 mmHg 71%
    12:00 +16°C° 0 mm 3 mps 754 mmHg 67%
    13:00 +16°C° 0 mm 3 mps 753 mmHg 66%
    14:00 +17°C° 0 mm 3 mps 753 mmHg 65%
    15:00 +17°C° 0 mm 3 mps 753 mmHg 64%
    16:00 +16°C° 0 mm 3 mps 753 mmHg 65%
    17:00 +16°C° 0 mm 2 mps 753 mmHg 67%
    18:00 +15°C° 0 mm 2 mps 753 mmHg 69%
    19:00 +14°C° 0 mm 2 mps 753 mmHg 72%
    20:00 +12°C° 0 mm 1 mps 753 mmHg 75%
    21:00 +10°C° 0 mm 0 mps 753 mmHg 78%
    22:00 +10°C° 0 mm 1 mps 753 mmHg 75%
    23:00 +10°C° 0 mm 1 mps 753 mmHg 73%

    Tomorrow, 27 June, Thursday

    Time Temperature Precipitation Wind Pressure Humidity
    00:00 +10°C° 0 mm 1 mps 754 mmHg 70%
    01:00 +10°C° 0 mm 1 mps 754 mmHg 69%
    02:00 +10°C° 0 mm 1 mps 754 mmHg 68%
    03:00 +10°C° 0 mm 1 mps 754 mmHg 66%
    04:00 +12°C° 0 mm 1 mps 754 mmHg 67%
    05:00 +13°C° 0 mm 1 mps 754 mmHg 68%
    06:00 +13°C° 0 mm 0 mps 754 mmHg 68%
    07:00 +15°C° 0 mm 1 mps 754 mmHg 69%
    08:00 +17°C° 0 mm 2 mps 754 mmHg 70%
    09:00 +18°C° 0 mm 2 mps 754 mmHg 70%
    10:00 +18°C° 0 mm 2 mps 754 mmHg 70%
    11:00 +18°C° 0 mm 3 mps 754 mmHg 70%
    12:00 +19°C° 0 mm 3 mps 754 mmHg 69%
    13:00 +19°C° 0 mm 3 mps 754 mmHg 70%
    14:00 +19°C° 0 mm 3 mps 754 mmHg 71%
    15:00 +19°C° 0 mm 3 mps 754 mmHg 72%
    16:00 +18°C° 0 mm 3 mps 753 mmHg 74%
    17:00 +17°C° 0 mm 3 mps 753 mmHg 77%
    18:00 +16°C° 0 mm 3 mps 753 mmHg 79%
    19:00 +15°C° 0 mm 2 mps 753 mmHg 84%
    20:00 +13°C° 0 mm 2 mps 753 mmHg 89%
    21:00 +11°C° 0 mm 1 mps 753 mmHg 93%
    22:00 +11°C° 0 mm 1 mps 753 mmHg 94%
    23:00 +11°C° 0 mm 1 mps 752 mmHg 94%

    Day after tomorrow, 28 June, Friday

    Time Temperature Precipitation Wind Pressure Humidity
    00:00 +9°C° 0 mm 0 mps 752 mmHg 94%
    01:00 +9°C° 0 mm 0 mps 752 mmHg 95%
    02:00 +10°C° 0 mm 1 mps 752 mmHg 95%
    03:00 +10°C° 0 mm 1 mps 752 mmHg 96%
    04:00 +10°C° 0 mm 1 mps 751 mmHg 95%
    05:00 +11°C° 0 mm 1 mps 751 mmHg 93%
    06:00 +12°C° 0 mm 1 mps 751 mmHg 92%
    07:00 +13°C° 0 mm 2 mps 751 mmHg 88%
    08:00 +14°C° 0 mm 2 mps 750 mmHg 85%
    09:00 +14°C° 0 mm 3 mps 750 mmHg 81%
    10:00 +16°C° 0 mm 3 mps 750 mmHg 77%
    11:00 +17°C° 0 mm 4 mps 750 mmHg 74%
    12:00 +19°C° 0 mm 4 mps 750 mmHg 70%
    13:00 +19°C° 0 mm 4 mps 749 mmHg 71%
    14:00 +19°C° 0 mm 5 mps 749 mmHg 71%
    15:00 +19°C° 0 mm 5 mps 748 mmHg 72%
    16:00 +17°C° 0 mm 5 mps 748 mmHg 73%
    17:00 +17°C° 0 mm 5 mps 747 mmHg 74%
    18:00 +18°C° 0 mm 4 mps 747 mmHg 75%
    19:00 +15°C° 0 mm 4 mps 747 mmHg 78%
    20:00 +14°C° 0 mm 4 mps 746 mmHg 82%
    21:00 +12°C° 0 mm 3 mps 746 mmHg 85%
    22:00 +12°C° 0 mm 3 mps 746 mmHg 86%
    23:00 +11°C° 0 mm 3 mps 745 mmHg 86%

    29 June, Saturday

    Time Temperature Precipitation Wind Pressure Humidity
    00:00 +10°C° 0 mm 3 mps 745 mmHg 86%
    01:00 +10°C° 0 mm 3 mps 744 mmHg 86%
    02:00 +10°C° 0 mm 3 mps 744 mmHg 86%
    03:00 +9°C° 0 mm 3 mps 744 mmHg 86%
    04:00 +10°C° 0 mm 3 mps 743 mmHg 85%
    05:00 +11°C° 0 mm 3 mps 742 mmHg 84%
    06:00 +12°C° 0 mm 4 mps 742 mmHg 83%
    07:00 +14°C° 0.1 mm 4 mps 742 mmHg 81%
    08:00 +15°C° 0.1 mm 4 mps 741 mmHg 79%
    09:00 +18°C° 0.1 mm 4 mps 741 mmHg 77%
    10:00 +19°C° 0.1 mm 4 mps 741 mmHg 77%
    11:00 +20°C° 0.1 mm 4 mps 740 mmHg 77%
    12:00 +21°C° 0.1 mm 4 mps 740 mmHg 78%
    13:00 +21°C° 0.2 mm 3 mps 739 mmHg 81%
    14:00 +20°C° 0.2 mm 3 mps 739 mmHg 83%
    15:00 +20°C° 0.2 mm 3 mps 738 mmHg 86%
    16:00 +19°C° 0.4 mm 2 mps 738 mmHg 88%
    17:00 +18°C° 0.4 mm 2 mps 737 mmHg 90%
    18:00 +17°C° 0.4 mm 2 mps 737 mmHg 92%
    19:00 +17°C° 0.1 mm 3 mps 737 mmHg 90%
    20:00 +15°C° 0.1 mm 4 mps 737 mmHg 89%
    21:00 +14°C° 0.1 mm 5 mps 737 mmHg 87%
    22:00 +13°C° 0 mm 5 mps 736 mmHg 88%
    23:00 +13°C° 0 mm 5 mps 736 mmHg 89%

    30 June, Sunday

    Time Temperature Precipitation Wind Pressure Humidity
    00:00 +13°C° 0 mm 5 mps 736 mmHg 90%
    01:00 +13°C° 0 mm 5 mps 736 mmHg 91%
    02:00 +12°C° 0 mm 4 mps 736 mmHg 91%
    03:00 +12°C° 0 mm 4 mps 736 mmHg 92%
    04:00 +13°C° 0 mm 4 mps 736 mmHg 90%
    05:00 +13°C° 0 mm 5 mps 737 mmHg 89%
    06:00 +13°C° 0 mm 5 mps 737 mmHg 87%
    07:00 +14°C° 0 mm 6 mps 737 mmHg 85%
    08:00 +14°C° 0 mm 6 mps 737 mmHg 82%
    09:00 +15°C° 0 mm 6 mps 738 mmHg 80%
    10:00 +15°C° 0 mm 7 mps 738 mmHg 77%
    11:00 +16°C° 0 mm 7 mps 738 mmHg 75%
    12:00 +16°C° 0 mm 8 mps 738 mmHg 73%
    13:00 +16°C° 0.1 mm 8 mps 738 mmHg 74%
    14:00 +16°C° 0.1 mm 8 mps 738 mmHg 74%
    15:00 +16°C° 0.1 mm 8 mps 738 mmHg 75%
    16:00 +16°C° 0.1 mm 8 mps 738 mmHg 75%
    17:00 +15°C° 0.1 mm 7 mps 738 mmHg 76%
    18:00 +15°C° 0.1 mm 6 mps 738 mmHg 76%
    19:00 +14°C° 0 mm 5 mps 739 mmHg 80%
    20:00 +12°C° 0 mm 4 mps 739 mmHg 83%
    21:00 +11°C° 0 mm 4 mps 739 mmHg 86%
    22:00 +11°C° 0 mm 4 mps 739 mmHg 87%
    23:00 +10°C° 0 mm 3 mps 739 mmHg 87%

    1 July, Monday

    Time Temperature Precipitation Wind Pressure Humidity
    00:00 +10°C° 0 mm 3 mps 739 mmHg 87%
    01:00 +10°C° 0 mm 4 mps 739 mmHg 87%
    02:00 +10°C° 0 mm 4 mps 739 mmHg 86%
    03:00 +9°C° 0 mm 5 mps 739 mmHg 85%
    04:00 +9°C° 0 mm 5 mps 739 mmHg 84%
    05:00 +9°C° 0 mm 6 mps 739 mmHg 82%
    06:00 +10°C° 0 mm 7 mps 739 mmHg 80%
    07:00 +10°C° 0 mm 7 mps 739 mmHg 80%
    08:00 +11°C° 0 mm 8 mps 739 mmHg 79%
    09:00 +12°C° 0 mm 8 mps 739 mmHg 78%
    10:00 +12°C° 0.1 mm 8 mps 740 mmHg 78%
    11:00 +13°C° 0.1 mm 8 mps 740 mmHg 78%
    12:00 +15°C° 0.1 mm 8 mps 741 mmHg 79%
    13:00 +14°C° 0.3 mm 7 mps 741 mmHg 79%
    14:00 +14°C° 0.3 mm 7 mps 742 mmHg 80%
    15:00 +14°C° 0.3 mm 6 mps 742 mmHg 80%
    16:00 +14°C° 0.2 mm 6 mps 743 mmHg 78%
    17:00 +15°C° 0.2 mm 5 mps 744 mmHg 76%
    18:00 +15°C° 0.2 mm 4 mps 744 mmHg 74%
    19:00 +13°C° 0 mm 4 mps 745 mmHg 76%
    20:00 +12°C° 0 mm 5 mps 745 mmHg 78%
    21:00 +9°C° 0 mm 5 mps 746 mmHg 80%
    22:00 +9°C° 0 mm 5 mps 746 mmHg 82%
    23:00 +8°C° 0 mm 5 mps 746 mmHg 84%
    Show more